DLH9PZ EDDF-EDDM

Flight info

Callsign DLH9PZ
Flight time 0h 32m
Altitude 23000
Route CINDY8S CINDY Z74 HAREM T104 ROKIL ROKIL1A
Aircraft A321/M-SDE3FGHIRWY/LB1

Departure

Time 2026-04-18 04:18
Airport Frankfurt Main Airport (EDDF)

Arrival

Time 2026-04-18 04:50
Airport Munich Airport (EDDM)
Time Latitude Longitude Altitude Speed Heading
2026-04-18 03:43 50.04803 8.56914 361 ft 0 kts 294°
2026-04-18 04:07 50.04799 8.56928 362 ft 4 kts 293°
2026-04-18 04:07 50.04788 8.56966 360 ft 4 kts 295°
2026-04-18 04:07 50.04780 8.57002 356 ft 4 kts 261°
2026-04-18 04:07 50.04792 8.57032 363 ft 4 kts 207°
2026-04-18 04:08 50.04791 8.57032 363 ft 4 kts 204°
2026-04-18 04:08 50.04773 8.57019 363 ft 0 kts 205°
2026-04-18 04:10 50.04771 8.57018 356 ft 1 kts 205°
2026-04-18 04:10 50.04739 8.56995 363 ft 8 kts 205°
2026-04-18 04:10 50.04681 8.56953 361 ft 10 kts 205°
2026-04-18 04:11 50.04615 8.56914 357 ft 11 kts 195°
2026-04-18 04:11 50.04544 8.56887 360 ft 9 kts 193°
2026-04-18 04:11 50.04466 8.56860 359 ft 14 kts 192°
2026-04-18 04:11 50.04368 8.56834 360 ft 14 kts 189°
2026-04-18 04:12 50.04268 8.56797 365 ft 16 kts 207°
2026-04-18 04:12 50.04213 8.56641 359 ft 18 kts 250°
2026-04-18 04:12 50.04167 8.56447 361 ft 20 kts 250°
2026-04-18 04:12 50.04116 8.56235 355 ft 22 kts 249°
2026-04-18 04:13 50.04063 8.56012 356 ft 23 kts 250°
2026-04-18 04:13 50.04007 8.55778 354 ft 24 kts 249°
2026-04-18 04:13 50.03948 8.55534 352 ft 24 kts 250°
2026-04-18 04:13 50.03890 8.55286 357 ft 25 kts 249°
2026-04-18 04:14 50.03829 8.55032 351 ft 25 kts 250°
2026-04-18 04:14 50.03766 8.54769 352 ft 26 kts 249°
2026-04-18 04:14 50.03700 8.54494 349 ft 28 kts 250°
2026-04-18 04:14 50.03636 8.54223 348 ft 23 kts 250°
2026-04-18 04:15 50.03578 8.53982 337 ft 24 kts 249°
2026-04-18 04:15 50.03518 8.53732 335 ft 25 kts 249°
2026-04-18 04:15 50.03468 8.53520 336 ft 19 kts 250°
2026-04-18 04:15 50.03420 8.53323 335 ft 20 kts 250°
2026-04-18 04:16 50.03371 8.53113 334 ft 21 kts 250°
2026-04-18 04:16 50.03318 8.52892 331 ft 22 kts 249°
2026-04-18 04:16 50.03277 8.52722 333 ft 15 kts 249°
2026-04-18 04:16 50.03231 8.52613 331 ft 9 kts 216°
2026-04-18 04:17 50.03184 8.52596 335 ft 0 kts 181°
2026-04-18 04:17 50.03163 8.52596 335 ft 15 kts 180°
2026-04-18 04:17 50.02813 8.52600 335 ft 86 kts 179°
2026-04-18 04:17 50.01993 8.52607 335 ft 147 kts 179°
2026-04-18 04:18 50.00816 8.52629 502 ft 178 kts 178°
2026-04-18 04:18 49.99615 8.52646 1326 ft 171 kts 179°
2026-04-18 04:18 49.98405 8.52651 1858 ft 180 kts 179°
2026-04-18 04:18 49.97112 8.53000 2080 ft 200 kts 154°
2026-04-18 04:19 49.96008 8.54436 2243 ft 219 kts 122°
2026-04-18 04:19 49.95241 8.56539 2693 ft 226 kts 118°
2026-04-18 04:19 49.94478 8.58707 3135 ft 237 kts 118°
2026-04-18 04:19 49.93686 8.61090 3425 ft 257 kts 117°
2026-04-18 04:20 49.92871 8.63600 4024 ft 263 kts 117°
2026-04-18 04:20 49.92042 8.66165 4679 ft 268 kts 117°
2026-04-18 04:20 49.91199 8.68765 5348 ft 272 kts 118°
2026-04-18 04:20 49.90341 8.71401 6031 ft 275 kts 118°
2026-04-18 04:21 49.89471 8.74060 6711 ft 278 kts 118°
2026-04-18 04:21 49.88587 8.76751 7357 ft 281 kts 118°
2026-04-18 04:21 49.87695 8.79469 8011 ft 285 kts 118°
2026-04-18 04:21 49.86791 8.82219 8660 ft 288 kts 118°
2026-04-18 04:22 49.85878 8.84997 9311 ft 291 kts 118°
2026-04-18 04:22 49.84954 8.87803 9981 ft 293 kts 118°
2026-04-18 04:22 49.84016 8.90646 10453 ft 303 kts 118°
2026-04-18 04:22 49.83019 8.93653 10579 ft 324 kts 118°
2026-04-18 04:23 49.81959 8.96847 10711 ft 343 kts 118°
2026-04-18 04:23 49.80838 9.00218 10836 ft 361 kts 118°
2026-04-18 04:23 49.79665 9.03758 10964 ft 378 kts 118°
2026-04-18 04:23 49.78448 9.07428 11262 ft 387 kts 118°
2026-04-18 04:24 49.77210 9.11150 11737 ft 391 kts 118°
2026-04-18 04:24 49.75959 9.14906 12229 ft 394 kts 118°
2026-04-18 04:24 49.74606 9.18603 12705 ft 397 kts 125°
2026-04-18 04:24 49.72879 9.21957 13194 ft 400 kts 133°
2026-04-18 04:25 49.71038 9.25199 13694 ft 404 kts 133°
2026-04-18 04:25 49.69178 9.28480 14158 ft 407 kts 133°
2026-04-18 04:25 49.67306 9.31783 14577 ft 411 kts 132°
2026-04-18 04:25 49.65420 9.35111 15003 ft 413 kts 133°
2026-04-18 04:26 49.63518 9.38463 15431 ft 416 kts 133°
2026-04-18 04:26 49.61605 9.41830 15862 ft 419 kts 133°
2026-04-18 04:26 49.59679 9.45216 16276 ft 422 kts 133°
2026-04-18 04:26 49.57742 9.48622 16691 ft 424 kts 132°
2026-04-18 04:27 49.55793 9.52048 17117 ft 426 kts 133°
2026-04-18 04:27 49.53831 9.55495 17524 ft 429 kts 133°
2026-04-18 04:27 49.51857 9.58959 17919 ft 432 kts 133°
2026-04-18 04:27 49.49866 9.62447 18321 ft 435 kts 133°
2026-04-18 04:28 49.47863 9.65945 18686 ft 437 kts 133°
2026-04-18 04:28 49.45844 9.69465 19041 ft 440 kts 133°
2026-04-18 04:28 49.43814 9.72998 19402 ft 442 kts 133°
2026-04-18 04:28 49.41773 9.76542 19752 ft 444 kts 133°
2026-04-18 04:29 49.39718 9.80105 20096 ft 447 kts 133°
2026-04-18 04:29 49.37654 9.83684 20450 ft 449 kts 133°
2026-04-18 04:29 49.35576 9.87279 20798 ft 451 kts 133°
2026-04-18 04:29 49.33486 9.90889 21134 ft 454 kts 133°
2026-04-18 04:30 49.31381 9.94518 21453 ft 456 kts 133°
2026-04-18 04:30 49.29269 9.98154 21784 ft 458 kts 133°
2026-04-18 04:30 49.27143 10.01814 22106 ft 461 kts 133°
2026-04-18 04:30 49.25005 10.05491 22423 ft 463 kts 133°
2026-04-18 04:31 49.22854 10.09176 22742 ft 466 kts 133°
2026-04-18 04:31 49.20687 10.12872 23060 ft 468 kts 133°
2026-04-18 04:31 49.18510 10.16583 23195 ft 472 kts 133°
2026-04-18 04:31 49.16311 10.20327 23207 ft 474 kts 133°
2026-04-18 04:32 49.14106 10.24079 23208 ft 475 kts 133°
2026-04-18 04:32 49.11861 10.27832 23000 ft 483 kts 134°
2026-04-18 04:32 49.09560 10.31584 22746 ft 484 kts 134°
2026-04-18 04:32 49.07240 10.35295 22306 ft 482 kts 135°
2026-04-18 04:33 49.04924 10.38962 21436 ft 477 kts 135°
2026-04-18 04:33 49.02634 10.42580 20650 ft 472 kts 135°
2026-04-18 04:33 49.00373 10.46163 19896 ft 466 kts 135°
2026-04-18 04:33 48.98147 10.49710 19153 ft 460 kts 135°
2026-04-18 04:34 48.95949 10.53216 18409 ft 455 kts 135°
2026-04-18 04:34 48.93781 10.56675 17627 ft 448 kts 135°
2026-04-18 04:34 48.91648 10.60076 16921 ft 441 kts 134°
2026-04-18 04:34 48.89548 10.63422 16212 ft 434 kts 134°
2026-04-18 04:35 48.87474 10.66720 15516 ft 428 kts 134°
2026-04-18 04:35 48.85427 10.69964 14859 ft 423 kts 134°
2026-04-18 04:35 48.83404 10.73162 14207 ft 418 kts 134°
2026-04-18 04:35 48.81402 10.76324 13536 ft 412 kts 134°
2026-04-18 04:36 48.79437 10.79418 13099 ft 401 kts 134°
2026-04-18 04:36 48.77537 10.82400 12829 ft 385 kts 134°
2026-04-18 04:36 48.75711 10.85260 12569 ft 370 kts 134°
2026-04-18 04:36 48.73952 10.88011 12304 ft 357 kts 134°
2026-04-18 04:37 48.72254 10.90665 12046 ft 345 kts 134°
2026-04-18 04:37 48.70612 10.93230 11791 ft 334 kts 134°
2026-04-18 04:37 48.69023 10.95713 11545 ft 323 kts 134°
2026-04-18 04:37 48.67480 10.98125 11300 ft 314 kts 134°
2026-04-18 04:38 48.65979 11.00466 11052 ft 306 kts 134°
2026-04-18 04:38 48.64505 11.02733 10805 ft 298 kts 136°
2026-04-18 04:38 48.62814 11.04380 10567 ft 293 kts 159°
2026-04-18 04:38 48.60872 11.05323 10307 ft 292 kts 164°
2026-04-18 04:39 48.58918 11.06147 10041 ft 291 kts 164°
2026-04-18 04:39 48.56971 11.06949 9750 ft 289 kts 164°
2026-04-18 04:39 48.55031 11.07741 9459 ft 288 kts 164°
2026-04-18 04:39 48.53103 11.08529 9167 ft 286 kts 164°
2026-04-18 04:40 48.51185 11.09315 8877 ft 285 kts 164°
2026-04-18 04:40 48.49276 11.10094 8597 ft 284 kts 164°
2026-04-18 04:40 48.47376 11.10875 8323 ft 282 kts 162°
2026-04-18 04:40 48.45614 11.12199 8033 ft 280 kts 146°
2026-04-18 04:41 48.44004 11.13836 7757 ft 279 kts 144°
2026-04-18 04:41 48.42413 11.15497 7484 ft 277 kts 144°
2026-04-18 04:41 48.40855 11.17124 7225 ft 274 kts 144°
2026-04-18 04:41 48.39305 11.18740 6985 ft 268 kts 144°
2026-04-18 04:42 48.37787 11.20318 6735 ft 262 kts 144°
2026-04-18 04:42 48.36301 11.21859 6486 ft 257 kts 144°
2026-04-18 04:42 48.34880 11.23441 6231 ft 251 kts 133°
2026-04-18 04:42 48.33926 11.25568 5992 ft 242 kts 116°
2026-04-18 04:43 48.33194 11.27804 5737 ft 236 kts 115°
2026-04-18 04:43 48.32494 11.30026 5494 ft 235 kts 114°
2026-04-18 04:43 48.31801 11.32240 5248 ft 234 kts 114°
2026-04-18 04:43 48.31147 11.34467 5044 ft 232 kts 106°
2026-04-18 04:44 48.31023 11.36860 4984 ft 231 kts 83°
2026-04-18 04:44 48.31212 11.39171 4986 ft 213 kts 83°
2026-04-18 04:44 48.31384 11.41270 5011 ft 194 kts 83°
2026-04-18 04:44 48.31545 11.43256 5018 ft 191 kts 83°
2026-04-18 04:45 48.31704 11.45230 5010 ft 190 kts 83°
2026-04-18 04:45 48.31862 11.47200 5007 ft 190 kts 83°
2026-04-18 04:45 48.32020 11.49172 4895 ft 190 kts 83°
2026-04-18 04:45 48.32178 11.51139 4672 ft 189 kts 83°
2026-04-18 04:46 48.32334 11.53099 4428 ft 188 kts 83°
2026-04-18 04:46 48.32489 11.55048 4177 ft 188 kts 83°
2026-04-18 04:46 48.32644 11.56994 3934 ft 187 kts 84°
2026-04-18 04:46 48.32745 11.58276 3771 ft 187 kts 84°
2026-04-18 04:47 48.32898 11.60208 3530 ft 186 kts 84°
2026-04-18 04:47 48.33050 11.62134 3277 ft 182 kts 84°
2026-04-18 04:47 48.33192 11.63924 3041 ft 163 kts 84°
2026-04-18 04:47 48.33321 11.65563 2833 ft 154 kts 85°
2026-04-18 04:48 48.33444 11.67141 2628 ft 151 kts 85°
2026-04-18 04:48 48.33566 11.68693 2409 ft 149 kts 84°
2026-04-18 04:48 48.33686 11.70236 2173 ft 148 kts 84°
2026-04-18 04:48 48.33801 11.71774 1988 ft 148 kts 84°
2026-04-18 04:49 48.33909 11.73312 1749 ft 148 kts 83°
2026-04-18 04:49 48.34043 11.74847 1569 ft 148 kts 81°
2026-04-18 04:49 48.34168 11.76324 1485 ft 129 kts 83°
2026-04-18 04:49 48.34247 11.77404 1485 ft 79 kts 84°
2026-04-18 04:50 48.34292 11.78028 1485 ft 52 kts 84°
2026-04-18 04:50 48.34332 11.78561 1480 ft 50 kts 83°
2026-04-18 04:50 48.34372 11.78957 1482 ft 27 kts 75°
2026-04-18 04:50 48.34459 11.79211 1478 ft 28 kts 52°
2026-04-18 04:51 48.34552 11.79397 1480 ft 21 kts 53°
2026-04-18 04:51 48.34618 11.79531 1475 ft 15 kts 53°
2026-04-18 04:51 48.34685 11.79658 1480 ft 16 kts 51°
2026-04-18 04:51 48.34788 11.79706 1477 ft 17 kts 354°
2026-04-18 04:52 48.34864 11.79693 1483 ft 4 kts 353°
2026-04-18 04:52 48.34900 11.79686 1476 ft 6 kts 352°
2026-04-18 04:52 48.34914 11.79683 1483 ft 0 kts 352°
2026-04-18 04:53 48.34926 11.79681 1478 ft 4 kts 353°
2026-04-18 04:53 48.34960 11.79673 1477 ft 6 kts 342°
2026-04-18 04:53 48.34986 11.79612 1478 ft 8 kts 274°
2026-04-18 04:53 48.35001 11.79527 1471 ft 9 kts 314°
2026-04-18 04:54 48.35025 11.79442 1481 ft 9 kts 269°
2026-04-18 04:54 48.35017 11.79368 1482 ft 2 kts 261°